DELTA 1 DEB, 8004

Orbit data source: Space-Track

DELTA 1 DEB, 8004 is space debris in SSO originally from a launch on Sun, 23 Jul 1972 UTC launched from the Air Force Western Test Range (AFWTR). Debris objects in space refer to the collection of defunct objects orbiting the Earth. Examples of debris include non-operational satellites, rocket bodies, and fragments generated from explosions, collisions, or faulty payload assembly.

Loading next visibility...
Identifier
8004, 1972-058DF
Orbit
SSO
Country
Flag of USUS
Related business
Manufacturer
Unknown
Mission
Spacecraft
Bus & Motor
Unknown
Mass
Unknown
Launch date (UTC)
1972-07-23 (53 years ago)
Launch vehicle
Unknown
Launch site
Air Force Western Test Range (AFWTR)
Object type
Payload
Rocket body
Debris
Shape & HBR
Unknown shape, 0.2 m
Radar Cross Section
Small (<0.1 m²)

Expand to show TLE details & history
Last TLE update: 8 hours ago

TLE from 8 hours ago
0 DELTA 1 DEB
1  8004U 72058DF  25295.76456269  .00003849  00000-0  99243-3 0  9996
2  8004  97.5811 323.2626 0184090 273.9794  84.0373 14.40882967740591
Epoch: 2025-10-22T18:20Z
TLE epoch observation values (Epoch: 2025-10-22T18:20:58.216Z)
Latitude
0.00004°
Longitude
16.58654°
Altitude
747.314 km
Speed
7.487 km/s
True Right ascension
21h 33m 03s
True Declination
0° 00' 00"
Sunlit
Object was in daylight at epoch
Visualization orbit readout
Latitude
Unknown
Longitude
Unknown
Altitude
Unknown
Speed
Unknown
Apparent Right ascension
Unknown
Apparent Declination
Unknown
Sunlit
N/A
Visualization observer readout
Local Sidereal Time
21:29:53
Azimuth
Unknown
Elevation
Unknown
Doppler factor
Unknown
Orbital elements
Apogee altitude
883.932 km
Perigee altitude
621.39 km
Semi-major axis
7,130.798 km
Eccentricity
0.01841
Inclination
97.5811°
RAAN
323.2626°
Arg. of periapsis
273.9794°
True anomaly
86.13996°
Mean anomaly
84.0373°
Eccentric anomaly
85.08818°
Mean motion
3.60442 °/min
Orbital period
99.88 mins
BSTAR
0.00099243
Loading maneuver chart data...
Computing Atmospheric mass density...

Documentation

Showing up to 5 results
|